Regional Weather Roundup
Issued by NWS

Home | Current Version | Previous Version | Text Only | Print | Product List | Glossary Off
Versions: 1 2 3 4 5 6 7 8 9 10 11 12 13 14 15 16 17 18 19 20 21 22 23 24 25 26 27 28 29 30 31 32 33 34 35 36 37 38 39 40 41 42 43 44 45 46 47 48 49 50

000
ASUS43 KOAX 021102
RWRNE

WEATHER ROUNDUP FOR NEBRASKA
NATIONAL WEATHER SERVICE OMAHA NE
600 AM CDT SUN AUG 02 2015

NOTES: SATELLITE DATA IS BEING USED TO AUGMENT CLOUD COVER ABOVE
       12000 FEET.
       "FAIR" INDICATES FEW OR NO CLOUDS BELOW 12,000 FEET WITH NO
       SIGNIFICANT WEATHER AND/OR OBSTRUCTIONS TO VISIBILITY.

  * THESE STATIONS DO NOT REPORT WEATHER SUCH AS RAIN...SNOW OR FOG.

NEZ001>004-019>022-054>056-021200-
NEBRASKA PANHANDLE

CITY           SKY/WX    TMP DP  RH WIND       PRES   REMARKS
SCOTTSBLUFF    CLEAR     59  55  87 CALM      30.00R
ALLIANCE       CLEAR     55  52  89 W5        29.97F
CHADRON        CLEAR     62  54  74 SW12      29.92F
KIMBALL        CLEAR     60  54  81 CALM      30.04S
SIDNEY         CLEAR     60  54  80 W5        30.01F
$$

NEZ057>060-069>072-079>082-021200-
SOUTHWEST NEBRASKA

CITY           SKY/WX    TMP DP  RH WIND       PRES   REMARKS
NORTH PLATTE   CLEAR     59  56  89 E3        29.93F
IMPERIAL       CLEAR     63  58  83 CALM      29.96S
LEXINGTON      PTCLDY    64  61  91 CALM      29.92S
MCCOOK         CLEAR     66  60  81 CALM      29.93S
$$

NEZ005>010-023>029-035>040-094-021200-
NORTH CENTRAL NEBRASKA

CITY           SKY/WX    TMP DP  RH WIND       PRES   REMARKS
AINSWORTH      CLEAR     64  58  81 SW7       29.88R
BROKEN BOW     CLEAR     59  56  89 CALM      29.91S
O`NEILL        CLEAR     64  61  91 W9        29.83S
ORD            CLEAR     58  56  93 NW3       29.86S
$$

NEZ041-046>049-061>064-073>077-083>087-021200-
SOUTH CENTRAL NEBRASKA

CITY           SKY/WX    TMP DP  RH WIND       PRES   REMARKS
GRAND ISLAND   CLEAR     68  63  84 SW7       29.89S
AURORA         PTCLDY    67  66  96 SW8       29.89S
HASTINGS       PTCLDY    67  64  90 SW3       29.90S
HEBRON         PTCLDY    71  66  85 SW6       29.90S
HOLDREGE       PTCLDY    67  63  86 S6        29.92S
KEARNEY *      PTCLDY    70  61  73 SW3       29.91S
$$

NEZ011>018-030>034-042>045-021200-
NORTHEAST NEBRASKA

CITY           SKY/WX    TMP DP  RH WIND       PRES   REMARKS
NORFOLK        CLEAR     66  64  93 CALM      29.81S
ALBION         CLEAR     67  62  83 W3        29.83F
BLAIR          MOCLDY    71  67  89 S5        29.85R
COLUMBUS *     CLEAR     72  63  73 CALM      29.84R
FREMONT        PTCLDY    71  67  87 S7        29.85R
TEKAMAH        PTCLDY    69  67  93 S7        29.81S
$$

NEZ050>053-065>068-078-088>093-021200-
SOUTHEAST NEBRASKA

CITY           SKY/WX    TMP DP  RH WIND       PRES   REMARKS
LINCOLN        PTCLDY    72  68  87 S7        29.86F
OMAHA EPPLEY   MOCLDY    74  70  87 SE7       29.84F
BEATRICE       PTCLDY    71  68  90 CALM      29.89R
FALLS CITY     PTCLDY    73  69  87 SW6       29.88R
NEBRASKA CITY  PTCLDY    70  69  97 S7        29.87S
$$

NEZ044-045-051>053-067-021200-
OMAHA AREA

CITY           SKY/WX    TMP DP  RH WIND       PRES   REMARKS
OMAHA EPPLEY   MOCLDY    74  70  87 SE7       29.84F
BLAIR          MOCLDY    71  67  89 S5        29.85R
FREMONT        PTCLDY    71  67  87 S7        29.85R
WAHOO          FAIR      70  67  91 S3        29.84R
$$


USA.gov is the U.S. government's official web portal to all federal, state and local government web resources and services.